Weather Roundup
Issued by NWS Chicago, IL

Home | Current Version | Previous Version | Graphics & Text | Print | Product List | Glossary On
Versions: 1 2 3 4 5 6 7 8 9 10 11 12 13 14 15 16 17 18 19 20 21 22 23 24 25 26 27 28 29 30 31 32 33 34 35 36 37 38 39 40 41 42 43 44 45 46 47 48 49 50
000
NZUS59 KLOT 041158
HRRLOT

CHICAGO AREA WEATHER ROUNDUP
NATIONAL WEATHER SERVICE CHICAGO/ROMEOVILLE IL
600 AM CST WED MAR 04 2015

NOTE: "FAIR" INDICATES FEW OR NO CLOUDS BELOW 12,000 FEET WITH NO
SIGNIFICANT WEATHER AND/OR OBSTRUCTIONS TO VISIBILITY.

* THESE STATIONS ARE NOT UNDER NWS QUALITY CONTROL. THEY ALSO MAY NOT
  REPORT WEATHER SUCH AS PRECIPITATION OR FOG.

ILZ005-006-012>014-019>023-041300-
NORTHEAST ILLINOIS

CITY           SKY/WX    TMP DP  RH WIND       PRES   REMARKS
OHARE          PTCLDY    18  12  77 NW14      30.00R WCI   4
6HR MIN TEMP:  18; 6HR MAX TEMP:  31;

MIDWAY         NOT AVBL
AURORA         PTCLDY    13   6  74 NW17      30.03R WCI  -4
6HR MIN TEMP:  13; 6HR MAX TEMP:  31;

WAUKEGAN       NOT AVBL
DUPAGE AIRPORT PTCLDY    15   9  76 NW15      30.02R WCI   0
6HR MIN TEMP:  15; 6HR MAX TEMP:  30;

WHEELING       PTCLDY    19  12  74 NW12      30.02R WCI   7
6HR MIN TEMP:  19; 6HR MAX TEMP:  31;

NORTHERLY IS     N/A     23  16  74 W13         N/A  WCI  11
$$

WIZ051-052-058>065-066-070>072-041300-
SOUTHEAST WISCONSIN

CITY           SKY/WX    TMP DP  RH WIND       PRES   REMARKS
MILWAUKEE      MOCLDY    16   3  56 NW16      30.01R WCI   1
6HR MIN TEMP:  16; 6HR MAX TEMP:  31;

WAUKESHA       PTCLDY    12   3  67 NW12G23   30.00R WCI  -2
$$

INZ001>003-010>013-019-020-041300-
NORTHWEST INDIANA

CITY           SKY/WX    TMP DP  RH WIND       PRES   REMARKS
GARY*          MOCLDY    27  18  69 W17       29.99R WCI  14
MICHIGAN CITY* NOT AVBL
RENSSELAER*    NOT AVBL
$$

LMZ740>746-041300-
SOUTHERN LAKE MICHIGAN

STATION/POSITION TIME  SKY/WX   TEMP WIND        PRES    VSBY
                                AIR  DIR/SP/G
                 (UTC)          (F)  (DEG/KT/KT) (MB)    (MI)
HARRISON CRIB    1100            25  290/ 18/ 21   N/A
BURNHAM HARBOR   1100            24  280/ 10/ 15   N/A
CALUMET HARBOR   1100            24  270/  8/ 13 1014.5R
BURNS HARBOR     NOT AVBL
MICHIGAN CITY    1100            29  280/ 16/ 19   N/A
$$

ABBREVIATIONS USED IN REMARKS
   TC - TEMPERATURE IN CELSIUS
  WCI - WIND CHILL INDEX
   HX - HEAT INDEX
  VSB - VISIBILITY
$$


USA.gov is the U.S. government's official web portal to all federal, state and local government web resources and services.